Location: Unspecified
(50.7693°N, 0.0000°E)
Time: 03:08:57
(UTC+00:00)

Transit 4A - Pass Details

Date: 25 June 2019
Orbit: 866 x 978 km, 66.8° (Epoch: 13 October)

Event Time Altitude Azimuth Distance (km) Brightness Sun altitude
Rises 11:18:19 0° 289° (WNW) 3,671 10.8 61.3°
Reaches altitude 10° 11:21:42 10° 307° (NW) 2,733 10.2 61.5°
Maximum altitude 11:26:12 20° 352° (N) 2,127 9.7 61.7°
Drops below altitude 10° 11:30:43 10° 37° (NE) 2,735 10.3 61.9°
Sets 11:34:07 0° 54° (NE) 3,675 10.9 62.1°
